Overview Statistics Trail Chart Weather Telemetry Raw packets
 

This is the latest recevied weather packets stored in our database for station/object KH6DH-13. If no packets are shown the sender has not sent any weather packets the latest 10 day(s).

<< 37 38 39 40 41 42 43 >>
Time Temp. Humidity Pressure Rain* Wind** Luminosity Snow
1788108749 25° C - - 0 mm 1.34 m/s, 302° - -
1788108148 25° C - - 0 mm 0.45 m/s, 28° - -
1788107547 25° C - - 0 mm 0.45 m/s, 13° - -
1788106946 25° C - - 0 mm 0.45 m/s, 113° - -
1788106345 25° C - - 0 mm 0.89 m/s, 6° - -
1788105744 25° C - - 0 mm 1.34 m/s, 8° - -
1788105141 25° C - - 0 mm 2.24 m/s, 89° - -
1788104536 25° C - - 0 mm 2.68 m/s, 89° - -
1788103932 25° C - - 0 mm 2.68 m/s, 120° - -
1788103328 25.56° C - - 0 mm 0.45 m/s, 319° - -
1788102724 25.56° C - - 0 mm 2.24 m/s, 70° - -
1788102120 25° C - - 0 mm 0 m/s - -
1788101516 25° C - - 0 mm 2.68 m/s, 66° - -
1788100912 25° C - - 0 mm 1.34 m/s, 190° - -
1788100308 25° C - - 0 mm 2.68 m/s, 101° - -
1788099704 25° C - - 0 mm 0.89 m/s, 39° - -
1788099100 25° C - - 0 mm 0 m/s - -
1788098496 25° C - - 0 mm 1.79 m/s, 115° - -
1788097892 25° C - - 0 mm 2.24 m/s, 128° - -
1788097288 25° C - - 0 mm 1.79 m/s, 101° - -
1788096684 25° C - - 0 mm 1.34 m/s, 330° - -
1788096080 25° C - - 0 mm 0.89 m/s, 208° - -
1788095476 25° C - - 0 mm 1.79 m/s, 63° - -
1788094873 25° C - - 0 mm 0.89 m/s, 45° - -
1788094272 25° C - - 0 mm 2.68 m/s, 10° - -

* Rain latest hour (hover to see other rain measurements)
** Current wind speed in m/s (hover to see current wind gust speed)